Regional Weather Roundup
Issued by NWS

Home | Current Version | Previous Version | Text Only | Print | Product List | Glossary Off
Versions: 1 2 3 4 5 6 7 8 9 10 11 12 13 14 15 16 17 18 19 20 21 22 23 24 25 26 27 28 29 30 31 32 33 34 35 36 37 38 39 40 41 42 43 44 45 46 47 48 49 50

000
ASUS45 KABQ 190810
RWRNM
NEW MEXICO REGIONAL WEATHER ROUNDUP
NATIONAL WEATHER SERVICE ALBUQUERQUE NM
200 AM MDT THU OCT 19 2017

NOTE: "FAIR" MEANS FEW OR NO CLOUDS BELOW 12,000 FEET AGL WITH NO
       SIGNIFICANT WEATHER OR OBSTRUCTIONS TO VISION.

      THIS PRODUCT IS RELEASED AS TWO VERSIONS.  ONE VERSION NEAR
      THE TOP OF THE HOUR CONTAINING PRELIMINARY DATA FROM ALBUQUERQUE
      AND OTHER STATIONS.  A FINAL VERSION WITH ADDITIONAL DATA IS
      ISSUED ABOUT 10 MINUTES AFTER THE HOUR.

NMZ501-503-504-510>518-190900-
NORTHWEST PLATEAU/NORTHCENTRAL MOUNTAINS

CITY           SKY/WX    TMP DP  RH WIND       PRES   REMARKS
FARMINGTON     FAIR      44  24  45 E8        30.15S
LOS ALAMOS     FAIR      56  16  20 CALM      30.25S
SANTA FE       FAIR      46  26  45 N7        30.20R
ANGEL FIRE     FAIR      26  21  84 CALM      30.36S

$$
NMZ402-403-502-505>509-190900-
WESTCENTRAL MOUNTAINS/SOUTHWEST MOUNTAINS

CITY           SKY/WX    TMP DP  RH WIND       PRES   REMARKS
GALLUP         FAIR      42  22  44 E5        30.20S
GRANTS         FAIR      42  25  51 NW6       30.23S
SILVER CITY    FAIR      50  43  78 N7        30.16S

$$
NMZ407-409-411-412-190900-
SOUTHERN DESERTS

CITY           SKY/WX    TMP DP  RH WIND       PRES   REMARKS
DEMING         FAIR      59  48  67 W7        30.11S
LAS CRUCES     FAIR      62  48  61 SW3       30.12S
HOLLOMAN AFB   FAIR      65  49  55 S12       30.10F
ALAMOGORDO     FAIR      63  48  59 S12       30.10S
T OR C         FAIR      62  44  51 CALM      30.11S

$$
NMZ519>523-190900-
CENTRAL VALLEYS/CENTRAL HIGHLANDS

CITY           SKY/WX    TMP DP  RH WIND       PRES   REMARKS
ALBUQUERQUE    MOCLDY    57  24  28 N9        30.14F
MORIARTY ARPT  FAIR      38  31  77 NE7       30.22S WCI  32
CLINES CORNERS FAIR      55  18  23 NE7       30.23F
BELEN          FAIR      49  33  54 N3        30.14S
SOCORRO        FAIR      55  35  48 SW5       30.11S

$$
NMZ524>526-539-540-190900-
SOUTHCENTRAL MOUNTAINS

CITY           SKY/WX    TMP DP  RH WIND       PRES   REMARKS
RUIDOSO        FAIR      54  32  43 W5        30.25S

$$
NMZ527>531-190900-
NORTHEAST HIGHLANDS/NORTHEAST PLAINS

CITY           SKY/WX    TMP DP  RH WIND       PRES   REMARKS
LAS VEGAS      FAIR      40  27  59 NE7       30.23F
RATON          FAIR      40  26  57 NE7       30.21F
CLAYTON        FAIR      47  39  74 NW7       30.13S

$$
NMZ532>537-190900-
EASTCENTRAL PLAINS

CITY           SKY/WX    TMP DP  RH WIND       PRES   REMARKS
SANTA ROSA     FAIR      48  37  63 S3        30.11R
CANNON AFB     CLEAR     55  46  73 CALM      30.09F
CLOVIS AIRPORT FAIR      53  45  74 S6        30.09F

$$
NMZ028-029-538-190900-
SOUTHEAST PLAINS

CITY           SKY/WX    TMP DP  RH WIND       PRES   REMARKS
ROSWELL        FAIR      59  49  69 S6        30.04F
ARTESIA        FAIR      57  48  72 S6        30.05S
CARLSBAD       FAIR      57  50  77 CALM      30.03F
HOBBS          FAIR      55  46  71 SW7       30.07S


$$




USA.gov is the U.S. government's official web portal to all federal, state and local government web resources and services.